Weather History for KPVG - May, 2014

Change the Weather History Date:

Monday, May 5, 2014

  Actual Average (KNGU) Record (KNGU)
Temperature  
Mean Temperature 56 °F -  
Max Temperature 66 °F 72 °F - (-1)
Min Temperature 46 °F 55 °F - (-1)
Degree Days  
Heating Degree Days 9    
Growing Degree Days 6 (Base 50)    
Moisture  
Dew Point 42 °F    
Average Humidity 64    
Maximum Humidity 94    
Minimum Humidity 32    
Precipitation  
Precipitation 0.31 in - - ()
Sea Level Pressure  
Sea Level Pressure 30.01 in    
Wind  
Wind Speed 5 mph (North)    
Max Wind Speed 10 mph    
Max Gust Speed 17 mph    
Visibility 10 miles    
Events Thunderstorm    
Averages and records for this station are not official NWS values.
T = Trace of Precipitation, MM = Missing Value Source: NWS Daily Summary

Daily Weather History Graph

Daily Weather History Graph

Search for Another Location

Airport or City:

Trip Planner

Search our weather history database for the weather conditions in past years. The results will help you decide how hot, cold, wet, or windy it might be!

Date:

Astronomy

May. 05, 2014 Rise Set
Actual Time 6:07 AM EDT 7:57 PM EDT
Civil Twilight 5:39 AM EDT 8:26 PM EDT
Nautical Twilight 5:05 AM EDT 9:00 PM EDT
Astronomical Twilight 4:29 AM EDT 9:36 PM EDT
Moon 11:24 AM EDT (5/5) 12:40 AM EDT (5/5)
Length of Visible Light 14h 46m
Length of Day
13h 50m
Waxing Crescent, 36% of the Moon is Illuminated
May 5
Waxing Crescent
May 6
First Quarter
May 14
Full
May 21
Last Quarter
May 28
New

Hourly Weather History & Observations

Time (EDT) Temp. Dew Point Humidity Pressure Visibility Wind Dir Wind Speed Gust Speed Precip Events Conditions
12:15 AM 59.0 °F 46.4 °F 63% 29.93 in 10.0 mi ENE 9.2 mph - N/A   Scattered Clouds
12:35 AM 59.0 °F 44.6 °F 59% 29.94 in 10.0 mi East 6.9 mph - N/A   Mostly Cloudy
12:55 AM 57.2 °F 44.6 °F 63% 29.95 in 10.0 mi East 3.5 mph - N/A   Mostly Cloudy
1:15 AM 55.4 °F 46.4 °F 72% 29.95 in 10.0 mi East 5.8 mph - N/A   Overcast
1:35 AM 55.4 °F 44.6 °F 67% 29.96 in 10.0 mi NE 3.5 mph - N/A   Scattered Clouds
1:55 AM 53.6 °F 46.4 °F 77% 29.96 in 10.0 mi NE 4.6 mph - N/A   Clear
2:15 AM 51.8 °F 44.6 °F 76% 29.97 in 10.0 mi Calm Calm - N/A   Clear
2:35 AM 51.8 °F 46.4 °F 82% 29.97 in 10.0 mi NNE 3.5 mph - N/A   Clear
2:55 AM 48.2 °F 44.6 °F 87% 29.98 in 10.0 mi Calm Calm - N/A   Clear
3:15 AM 48.2 °F 44.6 °F 87% 29.98 in 10.0 mi Calm Calm - N/A   Clear
3:35 AM 46.4 °F 42.8 °F 87% 29.98 in 10.0 mi Calm Calm - N/A   Clear
3:55 AM 48.2 °F 44.6 °F 87% 29.99 in 10.0 mi Calm Calm - N/A   Clear
4:15 AM 48.2 °F 44.6 °F 87% 30.00 in 10.0 mi Calm Calm - N/A   Mostly Cloudy
4:35 AM 51.8 °F 46.4 °F 82% 30.00 in 10.0 mi North 3.5 mph - N/A   Overcast
4:55 AM 53.6 °F 44.6 °F 72% 30.00 in 10.0 mi NNE 3.5 mph - N/A   Overcast
5:15 AM 55.4 °F 41.0 °F 58% 30.00 in 10.0 mi NNE 6.9 mph - N/A   Overcast
5:35 AM 55.4 °F 37.4 °F 51% 30.00 in 10.0 mi NNE 6.9 mph - N/A   Mostly Cloudy
5:55 AM 55.4 °F 35.6 °F 47% 30.01 in 10.0 mi North 4.6 mph - N/A   Partly Cloudy
6:15 AM 53.6 °F 35.6 °F 51% 30.02 in 10.0 mi North 4.6 mph - N/A   Clear
6:35 AM 55.4 °F 35.6 °F 47% 30.03 in 10.0 mi North 4.6 mph - N/A   Clear
6:55 AM 53.6 °F 35.6 °F 51% 30.04 in 10.0 mi North 3.5 mph - N/A   Clear
7:15 AM 55.4 °F 35.6 °F 47% 30.05 in 10.0 mi North 3.5 mph - N/A   Clear
7:35 AM 55.4 °F 35.6 °F 47% 30.05 in 10.0 mi Calm Calm - N/A   Clear
7:55 AM 57.2 °F 35.6 °F 44% 30.06 in 10.0 mi North 8.1 mph - N/A   Clear
8:15 AM 57.2 °F 33.8 °F 41% 30.06 in 10.0 mi North 10.4 mph 17.3 mph N/A   Clear
8:35 AM 57.2 °F 32.0 °F 38% 30.06 in 10.0 mi NNW 5.8 mph - N/A   Clear
8:55 AM 57.2 °F 33.8 °F 41% 30.06 in 10.0 mi NNW 6.9 mph - N/A   Clear
9:15 AM 59.0 °F 33.8 °F 39% 30.06 in 10.0 mi North 8.1 mph - N/A   Clear
9:35 AM 59.0 °F 33.8 °F 39% 30.06 in 10.0 mi North 5.8 mph - N/A   Clear
9:55 AM 60.8 °F 33.8 °F 36% 30.06 in 10.0 mi NW 4.6 mph - N/A   Clear
10:15 AM 60.8 °F 33.8 °F 36% 30.06 in 10.0 mi NNW 4.6 mph - N/A   Clear
10:35 AM 60.8 °F 33.8 °F 36% 30.06 in 10.0 mi North 8.1 mph - N/A   Clear
10:55 AM 62.6 °F 33.8 °F 34% 30.06 in 10.0 mi NNW 6.9 mph - N/A   Clear
11:15 AM 62.6 °F 33.8 °F 34% 30.06 in 10.0 mi NNE 3.5 mph - N/A   Clear
11:35 AM 62.6 °F 33.8 °F 34% 30.06 in 10.0 mi WNW 4.6 mph - N/A   Clear
11:55 AM 62.6 °F 35.6 °F 37% 30.06 in 10.0 mi NNE 3.5 mph - N/A   Clear
12:15 PM 62.6 °F 35.6 °F 37% 30.05 in 10.0 mi NW 9.2 mph - N/A   Clear
12:35 PM 64.4 °F 33.8 °F 32% 30.04 in 10.0 mi North 5.8 mph - N/A   Clear
12:55 PM 64.4 °F 33.8 °F 32% 30.03 in 10.0 mi NNE 6.9 mph - N/A   Clear
1:15 PM 64.4 °F 33.8 °F 32% 30.03 in 10.0 mi NW 5.8 mph - N/A   Clear
1:35 PM 64.4 °F 37.4 °F 37% 30.02 in 10.0 mi WNW 4.6 mph - N/A   Clear
2:15 PM 66.2 °F 37.4 °F 35% 30.00 in 10.0 mi Calm Calm - N/A   Clear
2:35 PM 66.2 °F 37.4 °F 35% 29.99 in 10.0 mi NNE 3.5 mph - N/A   Clear
2:55 PM 64.4 °F 39.2 °F 40% 29.99 in 10.0 mi Calm Calm - N/A   Partly Cloudy
3:15 PM 62.6 °F 42.8 °F 48% 29.99 in 10.0 mi WNW 3.5 mph - N/A   Mostly Cloudy
3:35 PM 62.6 °F 44.6 °F 52% 29.99 in 10.0 mi NW 4.6 mph - N/A   Overcast
3:55 PM 59.0 °F 48.2 °F 67% 29.99 in 10.0 mi NW 3.5 mph - N/A   Mostly Cloudy
4:15 PM 57.2 °F 46.4 °F 67% 30.03 in 10.0 mi WNW 5.8 mph - N/A   Overcast
4:35 PM 55.4 °F 46.4 °F 72% 30.03 in 10.0 mi WNW 3.5 mph - 0.02 in   Overcast
4:55 PM 53.6 °F 48.2 °F 82% 30.03 in 10.0 mi West 5.8 mph - 0.07 in   Overcast
5:15 PM 53.6 °F 48.2 °F 82% 30.02 in 10.0 mi NW 3.5 mph - 0.03 in   Overcast
5:35 PM 53.6 °F 48.2 °F 82% 30.01 in 10.0 mi West 3.5 mph - 0.04 in   Scattered Clouds
5:55 PM 53.6 °F 48.2 °F 82% 29.97 in 10.0 mi South 3.5 mph - 0.04 in   Partly Cloudy
6:15 PM 53.6 °F 48.2 °F 82% 29.95 in 10.0 mi SSE 5.8 mph - N/A   Partly Cloudy
6:35 PM 55.4 °F 50.0 °F 82% 29.95 in 10.0 mi Calm Calm - N/A   Clear
6:55 PM 55.4 °F 50.0 °F 82% 29.97 in 9.0 mi North 3.5 mph - N/A   Clear
7:15 PM 55.4 °F 51.8 °F 88% 29.98 in 10.0 mi Calm Calm - N/A   Partly Cloudy
7:35 PM 53.6 °F 50.0 °F 88% 29.98 in 10.0 mi Calm Calm - N/A   Mostly Cloudy
7:55 PM 53.6 °F 50.0 °F 88% 29.98 in 10.0 mi Calm Calm - N/A   Overcast
8:15 PM 53.6 °F 50.0 °F 88% 29.98 in 10.0 mi Calm Calm - N/A   Mostly Cloudy
8:35 PM 53.6 °F 50.0 °F 88% 29.98 in 10.0 mi SSE 4.6 mph - N/A   Mostly Cloudy
8:55 PM 53.6 °F 51.8 °F 94% 29.99 in 10.0 mi Calm Calm - N/A   Mostly Cloudy
9:15 PM 53.6 °F 51.8 °F 94% 29.99 in 10.0 mi ESE 3.5 mph - N/A   Overcast
9:35 PM 53.6 °F 50.0 °F 88% 29.98 in 10.0 mi Calm Calm - N/A   Mostly Cloudy
9:55 PM 53.6 °F 50.0 °F 88% 29.98 in 10.0 mi ESE 3.5 mph - N/A   Overcast
10:15 PM 53.6 °F 50.0 °F 88% 30.04 in 6.0 mi WNW 6.9 mph - 0.08 in Thunderstorm Thunderstorm
10:35 PM 53.6 °F 48.2 °F 82% 30.01 in 10.0 mi North 4.6 mph - 0.15 in Thunderstorm Thunderstorm
10:55 PM 51.8 °F 48.2 °F 88% 29.98 in 10.0 mi NE 5.8 mph - 0.15 in   Scattered Clouds
11:15 PM 51.8 °F 48.2 °F 88% 29.97 in 10.0 mi SSE 10.4 mph - 0.01 in Thunderstorm Mostly Cloudy
11:35 PM 51.8 °F 48.2 °F 88% 30.00 in 10.0 mi NNW 3.5 mph - 0.04 in Thunderstorm Mostly Cloudy
11:55 PM 51.8 °F 50.0 °F 94% 30.02 in 10.0 mi WNW 4.6 mph - 0.05 in Thunderstorm Overcast